Station MCGM4 - 9099018 - Marquette C.G., MI Image indicating link to RSS feed of recent meteorological observations for station MCGM4


Conditions at MCGM4 as of
(9:48 pm EDT on 07/17/2024)
0148 GMT on 07/18/2024:
     

Click on the graph icon in the table below to see a time series plot of the last five days of that observation.

5-day plot - Wind Direction Wind Direction (WDIR): NW ( 310 deg true )
5-day plot - Wind Speed Wind Speed (WSPD): 4.1 kts
5-day plot - Wind Gust Wind Gust (GST): 7.0 kts
5-day plot - Atmospheric Pressure Atmospheric Pressure (PRES):30.05 in
5-day plot - Air Temperature Air Temperature (ATMP): 59.5 °F
5-day plot - Dew Point Dew Point (DEWP): 47.8 °F
5-day plot - Wind Speed at 10 Meters Wind Speed at 10 meters (WSPD10M): 3.9 kts
5-day plot - Wind Speed at 20 Meters Wind Speed at 20 meters (WSPD20M): 3.9 kts
5-day plot -  Wind Speed, Wind Gust and Atmospheric Pressure Combined plot of Wind Speed, Gust, and Air Pressure
NOS Water Level Observation Network Water Level
Previous observations
TIME
(EDT)
5-day plot - Wind Direction
WDIR
 
5-day plot - Wind Speed
WSPD
kts
5-day plot - Wind Gust
GST
kts
5-day plot - Wave Height
WVHT
ft
5-day plot - Dominant Wave Period
DPD
sec
5-day plot - Average Wave Period
APD
sec
5-day plot - Mean Wave Direction
MWD
 
5-day plot - Atmospheric Pressure
PRES
in
5-day plot - Pressure Tendency
PTDY
in
5-day plot - Air Temperature
ATMP
°F
5-day plot - Water Temperature
WTMP
°F
5-day plot - Dew Point
DEWP
°F
5-day plot - Salinity
SAL
psu
5-day plot - Visibility
VIS
nmi
5-day plot - Tide (above MLLW)
TIDE
ft
2024-07-17 09:42 pm NW 2.9 8.0----30.05- 59.4- 48.0---
2024-07-17 09:36 pmWNW 4.1 6.0----30.05- 59.4- 48.2---
2024-07-17 09:30 pmWNW 2.9 5.1----30.04- 59.5- 48.0---
2024-07-17 09:24 pm NW 2.9 5.1----30.04- 59.7- 48.2---
2024-07-17 09:18 pm NW 4.1 6.0----30.05- 59.7- 47.8---
2024-07-17 09:12 pm NW 4.1 6.0----30.04- 59.7- 47.7---
2024-07-17 09:06 pm NW 4.1 6.0----30.04- 60.1- 46.9---
2024-07-17 09:00 pm NW 2.9 7.0----30.04- 60.3- 46.8---
2024-07-17 08:54 pm NW 5.1 8.0----30.04- 60.4- 46.4---
2024-07-17 08:48 pm NW 2.9 8.9----30.04- 60.4- 46.6---
2024-07-17 08:42 pmNNW 4.1 9.9----30.05- 60.4- 46.2---
2024-07-17 08:36 pmNNW 4.1 8.0----30.04- 60.6- 46.4---
2024-07-17 08:30 pm NW 5.1 8.0----30.04- 60.6- 46.6---
2024-07-17 08:24 pmNNW 4.1 9.9----30.04- 60.8- 46.9---
2024-07-17 08:18 pmNNW 5.1 8.9----30.04- 61.0- 47.1---
2024-07-17 08:12 pmNNW 4.1 8.9----30.04- 61.0- 47.1---
2024-07-17 08:06 pmNNW 6.0 9.9----30.04- 61.0- 47.5---
2024-07-17 08:00 pmNNW 5.1 8.9----30.04+0.03 61.0- 48.0---
2024-07-17 07:54 pmNNW 5.1 8.9----30.04- 60.4- 48.2---
2024-07-17 07:48 pmNNW 7.0 12.0----30.03- 60.6- 48.0---
2024-07-17 07:42 pm N 6.0 13.0----30.03- 61.2- 48.2---
2024-07-17 07:36 pmNNW 5.1 11.1----30.03- 61.3- 48.2---
2024-07-17 07:30 pmNNW 6.0 8.9----30.03- 61.3- 48.2---
2024-07-17 07:24 pmNNW 5.1 12.0----30.03- 61.2- 48.4---
2024-07-17 07:18 pmNNW 6.0 14.0------------
2024-07-17 07:12 pm N 8.9 15.9------------
2024-07-17 07:06 pm N 8.9 14.0------------
2024-07-17 07:00 pmNNW 6.0 15.0------------
2024-07-17 06:54 pmNNW 8.9 15.0------------
2024-07-17 06:48 pm N 8.0 14.0----30.03- 61.2- 48.7---
2024-07-17 06:42 pm N 9.9 15.9----30.02- 61.0- 48.2---
2024-07-17 06:36 pmNNW 7.0 18.1----30.02- 61.5- 48.7---
2024-07-17 06:30 pm N 8.0 15.0----30.02- 61.9- 49.3---
2024-07-17 06:24 pmNNW 8.0 15.9----30.02- 61.9- 48.2---
2024-07-17 06:18 pm-------30.02-------
2024-07-17 06:12 pm-------30.02-------
2024-07-17 06:06 pm-------30.02-------
2024-07-17 06:00 pmNNW 6.0 14.0------ 62.4- 50.0---
2024-07-17 05:54 pmNNW 5.1 15.0------ 62.8- 50.4---
2024-07-17 05:48 pmNNW 8.0 15.9----30.01- 62.1- 50.0---
2024-07-17 05:42 pmNNW 8.0 15.0----30.01- 61.9- 49.6---
2024-07-17 05:36 pmNNW 7.0 14.0----30.01- 62.2- 50.7---
2024-07-17 05:30 pmNNW 7.0 15.0----30.01- 61.7- 50.2---
2024-07-17 05:24 pmNNW 9.9 17.1----30.01- 61.3- 49.5---
2024-07-17 05:18 pmNNW 6.0 14.0----30.01- 62.1- 50.0---
2024-07-17 05:12 pmNNW 8.0 15.9----30.01- 61.3- 50.2---
2024-07-17 05:06 pmNNW 11.1 18.1----30.01- 61.2- 49.6---
2024-07-17 05:00 pmNNW 8.9 15.0----30.01+0.04 61.3- 50.0---
2024-07-17 04:54 pmNNW 7.0 17.1----30.01- 61.3- 50.7---
2024-07-17 04:48 pmNNW 8.0 19.0----30.01- 61.2- 50.5---
2024-07-17 04:42 pm N 9.9 15.9----30.01- 61.2- 50.5---
2024-07-17 04:36 pmNNW 8.9 15.0----30.01- 61.3- 50.2---
2024-07-17 04:30 pmNNW 7.0 15.9----30.01- 61.5- 50.9---
2024-07-17 04:24 pmNNW 7.0 15.0----30.01- 60.8- 50.4---
2024-07-17 04:18 pmNNW 9.9 17.1----30.01- 60.6- 50.0---
2024-07-17 04:12 pmNNW 8.0 15.9----30.00- 61.2- 50.0---
2024-07-17 04:06 pm N 11.1 22.0----30.00- 60.1- 49.1---
2024-07-17 04:00 pm N 8.9 15.9----30.00+0.06 60.6- 49.8---
2024-07-17 03:54 pmNNW 9.9 15.0----30.00- 60.4- 49.6---
2024-07-17 03:48 pmNNW 8.0 15.0----30.00- 60.4- 50.0---
2024-07-17 03:42 pmNNW 8.9 18.1----30.00- 60.3- 50.2---
2024-07-17 03:36 pmNNW 8.9 19.0----30.00- 59.9- 50.7---
2024-07-17 03:30 pm N 11.1 19.0----29.99- 59.9- 50.9---
2024-07-17 03:24 pmNNW 11.1 20.0----29.99- 59.4- 51.3---
2024-07-17 03:18 pmNNW 8.9 19.0----29.98- 58.8- 51.3---
2024-07-17 03:12 pmNNW 12.0 25.1----29.98- 58.1- 50.0---
2024-07-17 03:06 pmNNW 11.1 20.0----29.98- 58.3- 50.4---
2024-07-17 03:00 pmNNW 9.9 19.0----29.98+0.05 58.1- 50.7---
2024-07-17 02:54 pmNNW 11.1 18.1----29.98- 58.5- 50.7---
2024-07-17 02:48 pmNNW 8.0 18.1----29.98-------
2024-07-17 02:42 pm N 9.9 17.1----29.97-------
2024-07-17 02:36 pm N 8.9 18.1----29.97-------
2024-07-17 02:30 pmNNW 11.1 15.9----29.97- 57.7- 50.4---
2024-07-17 02:24 pmNNW 11.1 15.9----29.97- 58.1- 51.1---
2024-07-17 02:18 pmNNW 7.0 17.1----29.97- 58.3- 51.6---
2024-07-17 02:12 pmNNW 9.9 15.9----29.97- 57.9- 51.6---
2024-07-17 02:06 pmNNW 7.0 15.9----29.96- 57.9- 52.5---
2024-07-17 02:00 pmNNW 6.0 17.1----29.96+0.05 57.4- 52.9---
2024-07-17 01:54 pmNNW 7.0 20.0----29.96- 57.2- 52.7---
2024-07-17 01:48 pmNNW 8.9 19.0----29.96- 56.8- 52.3---
2024-07-17 01:42 pmNNW 8.0 15.9----29.96- 56.8- 52.7---
2024-07-17 01:36 pmNNW 6.0 13.0----29.96- 56.8- 53.1---
2024-07-17 01:18 pm N 8.0 15.0----29.95- 56.7- 53.4---
2024-07-17 01:12 pm N 6.0 12.0----29.95- 57.4- 54.3---
2024-07-17 01:06 pmNNW 7.0 13.0----29.94- 57.0- 53.8---
2024-07-17 01:00 pmNNW 8.0 17.1----29.94+0.04 57.6- 53.8---
2024-07-17 12:54 pm NW 5.1 13.0----29.94- 57.6- 54.1---
2024-07-17 12:48 pm NW 5.1 12.0----29.94- 57.2- 54.0---
2024-07-17 12:42 pm NW 7.0 11.1----29.94- 56.8- 53.4---
2024-07-17 12:36 pmNNW 8.9 15.0----29.94- 56.8- 53.1---
2024-07-17 12:30 pmNNW 6.0 14.0----29.93- 58.1- 53.2---
2024-07-17 12:24 pmNNW 6.0 13.0----29.93- 58.1- 53.4---
2024-07-17 12:18 pmNNW 5.1 8.9----29.93- 58.1- 53.8---
2024-07-17 12:12 pmNNW 4.1 8.0----29.93- 57.6- 53.8---
2024-07-17 12:06 pmNNW 5.1 9.9----29.93- 57.4- 53.6---
2024-07-17 12:00 pmNNW 5.1 11.1----29.93+0.04 57.2- 53.6---
2024-07-17 11:54 am NW 4.1 11.1----29.93- 56.7- 53.4---
2024-07-17 11:48 am NW 8.9 14.0----29.93- 56.3- 53.1---
2024-07-17 11:42 am NW 6.0 11.1----29.92- 57.2- 54.0---
2024-07-17 11:36 amNNW 6.0 11.1----29.92- 57.4- 53.2---
2024-07-17 11:30 amNNW 7.0 12.0----29.92- 57.6- 53.1---
2024-07-17 11:24 am N 4.1 12.0----29.92- 57.6- 53.1---
2024-07-17 11:18 amNNW 8.9 14.0----29.91- 59.0- 52.2---
2024-07-17 11:12 amNNW 9.9 18.1----29.91- 59.5- 51.3---
2024-07-17 11:06 amNNW 6.0 15.9----29.91- 59.5- 51.4---
2024-07-17 11:00 amNNW 6.0 12.0----29.91+0.04 59.4- 51.3---
2024-07-17 10:54 amNNW 6.0 13.0----29.91- 59.2- 51.3---
2024-07-17 10:48 am NW 4.1 11.1----29.91- 59.7- 51.3---
2024-07-17 10:42 amNNW 6.0 11.1----29.91- 59.7- 51.1---
2024-07-17 10:36 am NW 6.0 11.1----29.91- 59.7- 50.9---
2024-07-17 10:30 am NW 6.0 12.0----29.91- 59.2- 50.9---
2024-07-17 10:24 amNNW 6.0 13.0----29.91- 58.6- 51.1---
2024-07-17 10:18 amNNW 6.0 12.0----29.91- 59.2- 50.9---
2024-07-17 10:12 amNNW 5.1 11.1----29.90- 59.4- 50.5---
2024-07-17 10:06 amNNW 4.1 13.0----29.90- 59.4- 50.7---
2024-07-17 10:00 am NW 5.1 12.0----29.90+0.04 59.0- 50.4---
2024-07-17 09:54 amNNW 8.9 13.0----29.90- 59.0- 50.2---
2024-07-17 09:48 am NW 7.0 13.0----29.90-------
2024-07-17 09:42 am NW 5.1 9.9----29.90-------
2024-07-17 09:36 amNNW 5.1 12.0----29.90-------
2024-07-17 09:30 amNNW 5.1 11.1----29.89- 58.6- 50.9---
2024-07-17 09:24 am NW 6.0 11.1----29.89- 58.5- 50.7---
2024-07-17 09:18 am NW 6.0 12.0----29.89- 58.5- 50.9---
2024-07-17 09:12 am NW 8.0 14.0----29.89- 58.3- 50.7---
2024-07-17 09:06 am NW 5.1 9.9----29.89- 58.3- 51.1---
2024-07-17 09:00 am NW 5.1 12.0----29.89+0.06 57.9- 50.9---
2024-07-17 08:54 am NW 5.1 11.1----29.89- 58.1- 51.1---
2024-07-17 08:48 am NW 4.1 8.0----29.88- 58.1- 50.9---
2024-07-17 08:42 am NW 5.1 9.9----29.88- 58.1- 51.1---
2024-07-17 08:36 am NW 6.0 8.9----29.88- 57.9- 51.1---
2024-07-17 08:30 amWNW 2.9 8.0----29.88- 57.7- 51.4---
2024-07-17 08:24 am NW 5.1 8.9----29.88- 57.6- 51.4---
2024-07-17 08:18 am NW 5.1 8.0----29.88- 57.4- 51.4---
2024-07-17 08:12 am NW 5.1 8.9----29.87- 57.4- 51.6---
2024-07-17 08:06 amWNW 4.1 8.0----29.87- 57.4- 51.6---
2024-07-17 08:00 am NW 4.1 9.9----29.87+0.06 57.2- 51.6---
2024-07-17 07:54 am NW 6.0 12.0----29.87- 57.2- 51.4---
2024-07-17 07:48 am NW 6.0 11.1----29.86- 57.2- 51.4---
2024-07-17 07:42 am NW 4.1 11.1----29.86- 57.2- 51.4---
2024-07-17 07:36 am NW 6.0 8.0----29.86- 57.2- 51.3---
2024-07-17 07:30 am NW 4.1 8.9----29.86- 57.2- 51.4---
2024-07-17 07:24 am NW 5.1 8.0----29.85- 57.4- 51.4---
2024-07-17 07:18 am NW 4.1 8.0----29.85- 57.4- 51.4---
2024-07-17 07:12 am NW 5.1 8.9----29.85- 57.6- 51.4---
2024-07-17 07:06 amWNW 6.0 9.9----29.85- 57.7- 51.4---
2024-07-17 07:00 am NW 5.1 8.0----29.85+0.05 57.6- 51.4---
2024-07-17 06:54 am NW 6.0 11.1----29.85- 57.6- 51.3---
2024-07-17 06:48 am NW 4.1 7.0----29.85- 57.6- 51.4---
2024-07-17 06:42 amWNW 4.1 11.1----29.85- 57.6- 51.4---
2024-07-17 06:36 amWNW 5.1 8.9----29.84- 57.4- 51.3---
2024-07-17 06:30 am NW 5.1 8.0----29.84- 57.4- 51.4---
2024-07-17 06:24 amWNW 2.9 5.1----29.84- 57.4- 51.4---
2024-07-17 06:18 amWNW 4.1 7.0----29.84- 57.4- 51.4---
2024-07-17 06:12 am NW 2.9 8.0----29.84- 57.4- 51.3---
2024-07-17 06:06 amWNW 5.1 8.0----29.83- 57.6- 51.3---
2024-07-17 06:00 amWNW 4.1 8.0----29.83+0.03 57.6- 51.3---
2024-07-17 05:54 am NW 4.1 7.0----29.83- 57.6- 51.1---
2024-07-17 05:48 amWNW 2.9 6.0----29.83- 57.4- 50.9---
2024-07-17 05:42 amWNW 4.1 6.0----29.83- 57.4- 50.9---
2024-07-17 05:36 amWNW 2.9 6.0----29.83- 57.6- 50.9---
2024-07-17 05:30 amWNW 4.1 8.0----29.83- 57.6- 50.7---
2024-07-17 05:24 amWNW 4.1 8.0----29.82- 57.6- 50.5---
2024-07-17 05:18 amWNW 4.1 8.0----29.82- 57.6- 50.4---
2024-07-17 05:12 amWNW 4.1 7.0----29.81- 57.7- 50.4---
2024-07-17 05:06 amWNW 2.9 8.0----29.81- 57.7- 50.2---
2024-07-17 05:00 amWNW 4.1 7.0----29.81+0.01 57.7- 49.8---
2024-07-17 04:54 amWNW 2.9 7.0----29.81- 57.7- 49.6---
2024-07-17 04:48 amWNW 5.1 8.9----29.81- 57.9- 49.6---
2024-07-17 04:42 am W 2.9 7.0----29.81- 57.9- 49.6---
2024-07-17 04:36 am W 4.1 7.0----29.80- 58.1- 49.5---
2024-07-17 04:30 amWNW 2.9 7.0----29.80- 58.3- 49.3---
2024-07-17 04:24 amWNW 4.1 7.0----29.80- 58.3- 49.1---
2024-07-17 04:18 am W 2.9 7.0----29.80- 58.5- 49.1---
2024-07-17 04:12 amWNW 5.1 8.0----29.80- 58.5- 48.9---
2024-07-17 04:06 am W 2.9 7.0----29.80- 58.6- 49.1---
2024-07-17 04:00 am W 4.1 7.0----29.80+0.01 58.8- 49.1---
2024-07-17 03:54 amWNW 2.9 8.0----29.80- 58.8- 49.1---
2024-07-17 03:48 amWNW 4.1 8.0----29.80- 58.8- 49.1---
2024-07-17 03:42 amWNW 4.1 8.0----29.80- 58.8- 49.1---
2024-07-17 03:36 amWNW 2.9 6.0----29.80- 59.0- 49.1---
2024-07-17 03:30 am W 2.9 6.0----29.80- 59.0- 49.1---
2024-07-17 03:24 amWNW 2.9 7.0----29.80- 59.0- 49.3---
2024-07-17 03:18 am W 4.1 7.0----29.80- 59.2- 49.5---
2024-07-17 03:12 am W 4.1 6.0----29.80- 59.4- 49.3---
2024-07-17 03:06 amWNW 4.1 7.0----29.80- 59.5- 49.5---
2024-07-17 03:00 am W 2.9 6.0----29.80+0.01 59.7- 49.5---
2024-07-17 02:54 am W 2.9 8.9----29.80- 59.9- 49.3---
2024-07-17 02:48 am W 4.1 7.0----29.80- 60.1- 49.3---
2024-07-17 02:42 amWNW 2.9 6.0----29.80- 60.1- 49.3---
2024-07-17 02:36 amWNW 4.1 8.9----29.80- 60.3- 49.3---
2024-07-17 02:30 amWNW 5.1 8.0----29.80- 60.6- 49.5---
2024-07-17 02:24 amWNW 2.9 5.1----29.80- 60.8- 49.5---
2024-07-17 02:18 amWNW 2.9 7.0----29.80- 61.2- 49.5---
2024-07-17 02:12 amWNW 2.9 6.0----29.80- 61.2- 49.6---
2024-07-17 02:06 amWNW 2.9 6.0----29.80- 61.3- 49.8---
2024-07-17 02:00 amWNW 2.9 6.0----29.80+0.01 61.3- 50.2---
2024-07-17 01:54 amWNW 2.9 6.0----29.80- 61.2- 50.2---
2024-07-17 01:48 am W 2.9 6.0----29.80-------
2024-07-17 01:42 am W 4.1 7.0----29.80-------
2024-07-17 01:36 amWNW 2.9 5.1----29.80-------
2024-07-17 01:30 am W 2.9 6.0----29.80- 61.7- 50.4---
2024-07-17 01:24 amWNW 4.1 7.0----29.80- 61.9- 50.4---
2024-07-17 01:18 amWNW 2.9 6.0----29.80- 62.1- 50.4---
2024-07-17 01:12 am W 2.9 7.0----29.80- 62.6- 50.4---
2024-07-17 01:06 am W 2.9 8.9----29.79- 63.0- 50.4---
2024-07-17 01:00 am W 1.9 4.1----29.79+0.01 63.0- 50.4---
2024-07-17 12:54 am W 1.9 7.0----29.79- 63.1- 50.2---
2024-07-17 12:48 am W 1.9 5.1----29.79- 63.3- 50.2---
2024-07-17 12:42 am W 1.0 5.1----29.79- 63.1- 50.4---
2024-07-17 12:36 amWSW 2.9 5.1----29.79- 63.1- 50.7---
2024-07-17 12:30 amWSW 2.9 5.1----29.79- 63.1- 51.1---
2024-07-17 12:24 amWSW 2.9 4.1----29.79- 63.1- 51.3---
2024-07-17 12:18 amWSW 2.9 5.1----29.79-------
2024-07-17 12:12 amWSW 2.9 5.1----29.79-------
2024-07-17 12:06 amWSW 2.9 5.1----29.79-------
2024-07-17 12:00 amWSW 1.9 5.1----29.79+0.00 63.3- 52.9---
2024-07-16 11:54 pmWSW 1.9 5.1----29.79- 63.7- 53.1---
2024-07-16 11:48 pm W 1.9 4.1----29.79- 64.0- 53.1---
2024-07-16 11:42 pm W 1.0 2.9----29.79- 63.7- 54.1---
2024-07-16 11:36 pm- 0.0 2.9----29.79- 63.0- 55.4---
2024-07-16 11:30 pmWSW 1.9 2.9----29.79- 62.2- 57.4---
2024-07-16 11:24 pm SW 1.9 2.9----29.79- 62.1- 57.6---
2024-07-16 11:18 pm SW 1.9 2.9----29.79- 62.1- 57.7---
2024-07-16 11:12 pmSSW 1.0 4.1----29.79- 61.9- 57.7---
2024-07-16 11:06 pm SW 2.9 2.9----29.79- 62.1- 57.6---
2024-07-16 11:00 pmSSW 1.9 4.1----29.79+0.00 62.1- 58.1---
2024-07-16 10:54 pmSSW 2.9 4.1----29.79- 62.1- 58.1---
2024-07-16 10:48 pmSSW 2.9 4.1----29.79- 62.4- 58.3---
2024-07-16 10:42 pm SW 1.9 2.9----29.79- 63.0- 58.5---
2024-07-16 10:36 pmSSW 1.0 1.9----29.79- 63.0- 58.5---
2024-07-16 10:30 pm SW 1.0 1.9----29.79- 63.1- 58.3---
2024-07-16 10:24 pm- 0.0 1.9----29.78- 63.1- 58.5---
2024-07-16 10:18 pm SW 1.9 2.9----29.78- 63.3- 58.3---
2024-07-16 10:12 pm SW 1.9 2.9----29.78- 63.3- 58.5---
2024-07-16 10:06 pmSSW 1.9 4.1----29.78- 63.5- 58.5---
2024-07-16 10:00 pmSSW 1.9 4.1----29.78- 63.7- 58.5---
2024-07-16 09:54 pm SW 1.9 4.1----29.78- 64.0- 58.5---